LUCH (OLYMP) 2

导读

LUCH (OLYMP) 2是由独立国家联合体(CIS)发射的军用通信卫星,于2023年3月12日发射入轨,作为“露珠”(LUCH)项目的重要组成部分,承担空间通信中继任务,主要服务于军事通信与战略数据传输需求,增强CIS区域及全球范围内的空间通信覆盖能力,是其航天通信体系建设的关键节点,目前已在轨稳定运行超过三年,持续为相关军事与安全任务提供通信支撑。

基本信息
目录编号:
55841
目录名称:
LUCH (OLYMP) 2
国际标识:
2023-031A
轨道中心:
EARTH
卫星名称:
LUCH (OLYMP) 2
卫星全名:
--
卫星状态:
在轨 (已飞行1193 天)
发射日期:
2023-03-12 UTC
国别 :
俄罗斯(独联体) (CIS)
星等 :
--
轨道信息
数据来源 国际轨道数据 AOE轨道数据
星历时间 2026-06-16T17:53:07+0800
22小时前
查看轨道信息
2026-06-16T09:00:00+0800
1天前
查看轨道信息
半长轴 42164.672km 42164.672km
偏心率 0.0000697 0.0000645
轨道倾角 0.027° 0.032°
近地点辐角 146.779° 152.601°
升交点赤经 60.884° 69.338°
平近点角 267.281° 119.362°
近地点 35783.596km 35783.815km
远地点 35789.474km 35789.255km
周期 1436.094分钟 1436.094分钟
每日圈数 1.00272 1.00272
详细信息
使用方式:
暂无
2D轨道图
3D轨道图
轨道高度分析图
轨道倾角分析图
轨道综合分析图
查看轨道综合分析图